Regional Weather Roundup
Issued by NWS Charleston, SC

Current Version | Previous Version | Graphics & Text | Print | Product List | Glossary On
Versions: 1 2 3 4 5 6 7 8 9 10 11 12 13 14 15 16 17 18 19 20 21 22 23 24 25 26 27 28 29 30 31 32 33 34 35 36 37 38 39 40 41 42 43 44 45 46 47 48 49 50
000
ASUS42 KCHS 211727
RWRCHS

REGIONAL WEATHER ROUNDUP
NATIONAL WEATHER SERVICE CHARLESTON SC
100 PM EDT SAT OCT 21 2017

NOTE: "FAIR" INDICATES FEW OR NO CLOUDS BELOW 12,000 FEET WITH NO
SIGNIFICANT WEATHER AND/OR OBSTRUCTIONS TO VISIBILITY.

NOT ALL STATIONS ARE QUALITY CONTROLLED. USE DATA WITH CAUTION...
ESPECIALLY DEWPOINT OBSERVATIONS.

SCZ027-030-031-034>040-042>050-211800-
...SOUTHEAST SOUTH CAROLINA...

CITY           SKY/WX    TMP DP  RH WIND       PRES   REMARKS
N CHARLESTON   MOSUNNY   80  62  54 NE6       30.29F
WATERFRONT PRK   N/A     78  63  59 E8        30.14S
JOHNS ISLAND   FAIR      79  63  57 NE9       30.28F
PINOPOLIS        N/A     73  63  68 VRB3      30.24S
MONCKS CORNER  FAIR      79  59  50 SE7       30.29F
SUMMERVILLE    FAIR      77  59  53 NE6       30.30F
BEAUFORT MCAS  CLOUDY    79  60  52 MISG      30.28F
BEAUFORT ARPT  FAIR      77  61  57 N8        30.27F
HILTON HEAD IS SUNNY     77  63  61 N8          N/A
WALTERBORO     SUNNY     77  59  53 CALM      30.29F
ALLENDALE        N/A     77  50  38 CALM        N/A

...SOUTHERN MIDLANDS AND PEE DEE...

CITY           SKY/WX    TMP DP  RH WIND       PRES   REMARKS
GEORGETOWN     FAIR      77  59  53 E6        30.32S
KINGSTREE      FAIR      77  52  41 CALM      30.30F
ORANGEBURG     SUNNY     78  50  37 VRB3      30.30F
BARNWELL         N/A     79  54  41 NE6       30.29F
AIKEN          FAIR      77  52  41 E8        30.33F
MANNING        FAIR      77  18  10 MISG      30.30F
COLUMBIA       PTSUNNY   78  55  44 E7        30.31F
SUMTER         SUNNY     78  53  40 E5        30.29F
FLORENCE       SUNNY     76  53  44 CALM      30.31F
MYRTLE BEACH   SUNNY     75  59  57 E9        30.32F
N MYRTLE BEACH SUNNY     76  58  53 E8        30.31F

$$

GAZ063-065-086>088-099>101-113>116-118-119-134>141-150-211800-
...SOUTHEAST GEORGIA...

CITY           SKY/WX    TMP DP  RH WIND       PRES   REMARKS
SAVANNAH ARPT  PTSUNNY   81  60  48 NE12      30.27F
HUNTER AAF     SUNNY     81  63  53 NE9G18    30.24F
FORT STEWART   SUNNY     82  62  51 E6        30.24F
STATESBORO     SUNNY     80  52  37 N5        30.28F
SYLVANIA       MOSUNNY   80  61  53 CALM      30.29F
CLAXTON        FAIR      82  56  40 NE9       30.26F

...CSRA...CENTRAL AND FAR SOUTHEAST GEORGIA...

CITY           SKY/WX    TMP DP  RH WIND       PRES   REMARKS
THOMSON        SUNNY     75  55  49 S5        30.34F
AUGUSTA-BUSH   SUNNY     79  56  45 CALM      30.29F
AUGUSTA-DANIEL SUNNY     77  55  46 E8        30.31F
SWAINSBORO     FAIR      79  57  47 MISG      30.28F
VIDALIA        SUNNY     82  61  47 E8        30.26F
EASTMAN        FAIR      82  44  26 E10       30.28F
HAZLEHURST     FAIR      82  49  30 NE5       30.24F
ALMA           MOSUNNY   82  63  52 E7        30.24F
WAYCROSS       CLOUDY    82  61  49 E13       30.23F
JESUP          NOT AVBL
BAXLEY         PTSUNNY   81  59  47 E8        30.24F
BRUNSWICK      MOSUNNY   79  64  61 NE16G26   30.25F
SAINT SIMONS   MOSUNNY   80  69  69 NE14      30.25S

$$

SCZ027-028-034-036>038-045-046-048>050-GAZ119-141-211800-
...LAKE AND SUPPLEMENTAL COASTAL OBSERVATIONS...

STATION/POSITION TIME  TEMP    WIND        PRES    WAVE   SWELL
                       AIR SEA DIR/SP/G            HT/PER HT/PER/DIR
                 (UTC) (F)     (DEG/KT/KT) (MB)    (FT/S) (FT/S/D)
WINYAH BAY       1630   71      60/  9     1027.0S
LAKE MURRAY      1630   73     200/  3/  4 1025.7S
ACE BASIN NERRS  1645   80      70/  3     1026.0S
FORT PULASKI     1700   74 73   80/ 11/ 14 1025.5
SAPELO ISLAND    NOT AVBL

$$

ANZ835-935-AMZ111-154-330-350-352-354-370-450-454-472-211800-
...C-MAN AND BUOY OBSERVATIONS...

STATION/POSITION TIME  TEMP    WIND        PRES    WAVE   SWELL
                       AIR SEA DIR/SP/G            HT/PER HT/PER/DIR
                 (UTC) (F)     (DEG/KT/KT) (MB)    (FT/S) (FT/S/D)
BUOY 41004       1710   76 80   40/ 16/ 19 1024.6
BUOY 41008       1650   75 77   60/ 17/ 21 1023.8F   4/ 5   2/120/ 8
FOLLY BEACH CMAN 1700   73      50/ 12/ 14 1026.4F
CAPERS NEARSHORE 1708   71 74   60/ 14/ 19 1025.4F
FRIPP NEARSHORE  1708   74      50/ 14/ 17   N/A


STATION/POSITION TIME  TEMP    WIND        PRES    WAVE   SWELL
                       AIR SEA DIR/SP/G            HT/PER HT/PER/DIR
                 (UTC) (F)     (DEG/KT/KT) (MB)    (FT/S) (FT/S/D)
5E ST. MARYS GA  1700      77                N/A     4/ 8
FRYING PAN BUOY  1710   75 76   40/ 10/ 12 1025.8
BUOY 41025       1650   73 81   20/ 10/ 14 1026.5F   3/ 8   3/120/ 8
CAPE LOOKOUT NC  1700   72      50/ 12/ 13 1026.5F
BUOY 41002       1650   77 80   70/ 10/ 14 1024.6F   5/ 8   3/ 90/ 8
BUOY 41010       NOT AVBL
ST AUGUSTINE FL  1700   79 77   90/ 12/ 13 1023.5F


$$



USA.gov is the U.S. government's official web portal to all federal, state and local government web resources and services.